User: anonymous   Login
Location: Unspecified
(0.0000°N, 0.0000°E)
Time: 19:55:07
(UTC+00:00)
Language:

OPTUS D1 - Orbit

View from above orbital plane
View from above orbital plane
View from above satellite
View from above satellite

Ground track
Ground track

The orbit data is extracted from the following two-line orbital elements,

1 29495U 06043B   14351.58675843 -.00000097  00000-0  10000-3 0  6675
2 29495 000.0150 350.9561 0003661 265.2909 201.1418 01.00272455 30034
Epoch (UTC): 17 December 2014 14:04:55
Eccentricity: 0.0003661
inclination: 0.0150°
perigee height: 35770 km
apogee height: 35801 km
right ascension of ascending node: 350.9561°
argument of perigee: 265.2909°
revolutions per day: 1.00272455
mean anomaly at epoch: 201.1418°
orbit number at epoch: 3003

The dashed part of the orbit path shows where the satellite is in the earth's shadow,  

DLR